This is the latest recevied weather packets stored in our database for station/object 4S6DRJ-13. If no packets are shown the sender has not sent any weather packets the latest 10 day(s).
| Time | Temp. | Humidity | Pressure | Rain* | Wind** | Luminosity | Snow |
|---|---|---|---|---|---|---|---|
| 1788099544 | 28.33° C | 82% | 1009.7 hPa | 0 mm | 1.34 m/s, 228° | 0 W/m² | - |
| 1788099483 | 28.33° C | 82% | 1009.4 hPa | 0 mm | 0.89 m/s, 219° | 0 W/m² | - |
| 1788099422 | 28.33° C | 82% | 1009.6 hPa | 0 mm | 1.79 m/s, 268° | 0 W/m² | - |
| 1788099361 | 28.33° C | 82% | 1009.7 hPa | 0 mm | 0.45 m/s, 233° | 0 W/m² | - |
| 1788099300 | 28.33° C | 82% | 1009.6 hPa | 0 mm | 1.79 m/s, 225° | 0 W/m² | - |
| 1788099239 | 28.33° C | 81% | 1009.6 hPa | 0 mm | 2.24 m/s, 269° | 0 W/m² | - |
| 1788099178 | 28.33° C | 81% | 1009.6 hPa | 0 mm | 0.45 m/s, 190° | 0 W/m² | - |
| 1788099117 | 28.33° C | 81% | 1009.6 hPa | 0 mm | 0.89 m/s, 298° | 0 W/m² | - |
| 1788099056 | 28.33° C | 81% | 1009.7 hPa | 0 mm | 1.79 m/s, 249° | 0 W/m² | - |
| 1788098995 | 28.33° C | 80% | 1009.4 hPa | 0 mm | 0.45 m/s, 227° | 0 W/m² | - |
| 1788098935 | 28.33° C | 80% | 1009.5 hPa | 0 mm | 0.89 m/s, 233° | 0 W/m² | - |
| 1788098873 | 28.33° C | 80% | 1009.4 hPa | 0 mm | 0.89 m/s, 203° | 0 W/m² | - |
| 1788098751 | 28.33° C | 80% | 1009.6 hPa | 0 mm | 1.34 m/s, 109° | 0 W/m² | - |
| 1788098690 | 28.33° C | 80% | 1009.6 hPa | 0 mm | 0.45 m/s, 168° | 0 W/m² | - |
| 1788098629 | 28.33° C | 80% | 1009.6 hPa | 0 mm | 0.89 m/s, 197° | 0 W/m² | - |
| 1788098568 | 28.33° C | 80% | 1009.5 hPa | 0 mm | 1.79 m/s, 204° | 0 W/m² | - |
| 1788098507 | 28.33° C | 80% | 1009.5 hPa | 0 mm | 1.79 m/s, 243° | 0 W/m² | - |
| 1788098446 | 28.33° C | 80% | 1009.5 hPa | 0 mm | 0.89 m/s, 199° | 0 W/m² | - |
| 1788098385 | 28.33° C | 80% | 1009.4 hPa | 0 mm | 0.89 m/s, 251° | 0 W/m² | - |
| 1788098324 | 28.33° C | 80% | 1009.4 hPa | 0 mm | 0.45 m/s, 295° | 0 W/m² | - |
| 1788098263 | 28.33° C | 80% | 1009.6 hPa | 0 mm | 0 m/s | 0 W/m² | - |
| 1788098202 | 28.33° C | 80% | 1009.4 hPa | 0 mm | 0.89 m/s, 248° | 0 W/m² | - |
| 1788098141 | 28.33° C | 80% | 1009.6 hPa | 0 mm | 1.34 m/s, 161° | 0 W/m² | - |
| 1788098081 | 28.33° C | 80% | 1009.5 hPa | 0 mm | 1.79 m/s, 36° | 0 W/m² | - |
| 1788098019 | 28.33° C | 80% | 1009.4 hPa | 0 mm | 1.79 m/s, 232° | 0 W/m² | - |
* Rain latest hour (hover to see other rain measurements)
** Current wind speed in m/s (hover to see current wind gust speed)